EW3975 Weather Reports


time (UTC)temp
F
wind
direction
speed
knots
gust
knots
rain 1hr
in
rain 24hr
in
rain mn
in
humidity
%
barometer
mb
20260506201839 73 225 6.1 14.8 0.00 0.00 0.00 55
20260506201338 74 182 6.1 14.8 0.00 0.00 0.00 56
20260506201005 73 290 2.6 8.7 0.00 0.00 0.00 55
20260506200847 73 271 1.7 6.1 0.00 0.00 0.00 54
20260506200840 74 261 3.5 11.3 0.00 0.00 0.00 56
20260506195337 73 309 3.5 8.7 0.00 0.00 0.00 54
20260506194836 73 5 2.6 7.8 0.00 0.00 0.00 55
20260506194345 71 92 1.7 8.7 0.00 0.00 0.00 55
20260506194338 72 211 1.7 8.7 0.00 0.00 0.00 56
20260506193336 73 275 1.7 4.3 0.00 0.00 0.00 53
20260506192839 74 79 2.6 7.8 0.00 0.00 0.00 55
20260506192835 73 134 3.5 7.8 0.00 0.00 0.00 55
20260506191835 72 184 2.6 6.1 0.00 0.00 0.00 56
20260506191333 72 184 3.5 8.7 0.00 0.00 0.00 54
20260506190833 73 132 4.3 8.7 0.00 0.00 0.00 54
20260506190334 72 84 4.3 9.6 0.00 0.00 0.00 57
20260506185834 71 115 4.3 9.6 0.00 0.00 0.00 55
20260506185332 71 116 2.6 7.8 0.00 0.00 0.00 56
20260506184832 71 115 0.9 7.0 0.00 0.00 0.00 58
20260506184334 69 304 1.7 4.3 0.00 0.00 0.00 59
20260506183833 69 344 2.6 7.0 0.00 0.00 0.00 59
20260506183332 68 285 3.5 7.0 0.00 0.00 0.00 62
20260506182833 68 19 3.5 7.0 0.00 0.00 0.00 61
20260506182332 68 24 2.6 7.0 0.00 0.00 0.00 62
20260506181832 68 123 2.6 5.2 0.00 0.00 0.00 63
20260506181342 67 42 1.7 5.2 0.00 0.00 0.00 65
20260506181333 67 0 0.9 3.5 0.00 0.00 0.00 64
20260506180330 66 259 1.7 5.2 0.00 0.00 0.00 64
20260506175829 67 323 1.7 5.2 0.00 0.00 0.00 65
20260506175328 67 185 1.7 7.8 0.00 0.00 0.00 66
20260506174830 67 202 1.7 7.8 0.00 0.00 0.00 66
20260506174328 66 159 1.7 4.3 0.00 0.00 0.00 66
20260506173829 66 130 1.7 5.2 0.00 0.00 0.00 66
20260506173328 66 69 1.7 5.2 0.00 0.00 0.00 68
20260506172828 65 227 1.7 5.2 0.00 0.00 0.00 69
20260506172330 65 142 0.9 3.5 0.00 0.00 0.00 69
20260506171828 64 92 0.9 3.5 0.00 0.00 0.00 70
20260506171328 65 106 0.9 5.2 0.00 0.00 0.00 70
20260506170828 64 180 1.7 5.2 0.00 0.00 0.00 71
20260506170330 63 271 0.9 3.5 0.00 0.00 0.00 70
20260506165829 63 121 0.0 2.6 0.00 0.00 0.00 71
20260506165326 63 61 0.9 2.6 0.00 0.00 0.00 72
20260506164828 62 94 0.9 5.2 0.00 0.00 0.00 73
20260506164326 62 46 0.9 5.2 0.00 0.00 0.00 72
20260506163841 62 174 0.9 5.2 0.00 0.01 0.00 75
20260506163826 62 162 0.9 5.2 0.00 0.01 0.00 73
20260506163326 62 153 1.7 5.2 0.00 0.01 0.00 74
20260506162328 61 108 0.0 1.7 0.00 0.01 0.00 76
20260506161826 60 46 0.9 3.5 0.00 0.01 0.00 76
20260506161327 60 90 1.7 3.5 0.00 0.01 0.00 77
20260506160826 60 98 0.9 3.5 0.00 0.01 0.00 79
20260506160324 59 174 0.9 2.6 0.00 0.01 0.00 79
20260506155824 58 327 0.9 2.6 0.00 0.01 0.00 80
20260506155331 57 225 0.0 2.6 0.00 0.01 0.00 80
20260506155324 58 317 0.0 2.6 0.00 0.01 0.00 80
20260506154325 58 225 1.7 4.3 0.00 0.01 0.00 80
20260506153824 57 225 1.7 4.3 0.00 0.01 0.00 81
20260506153325 57 220 0.9 3.5 0.00 0.01 0.00 81
20260506152826 57 251 0.0 2.6 0.00 0.01 0.00 82
20260506152324 57 173 0.0 0.9 0.00 0.01 0.00 83
20260506151824 56 180 0.0 2.6 0.00 0.01 0.00 84
20260506151323 56 182 0.9 2.6 0.00 0.01 0.00 85
20260506150822 56 224 0.9 3.5 0.00 0.01 0.00 85
20260506150322 56 225 0.0 3.5 0.00 0.01 0.00 85
20260506145822 56 200 0.0 1.7 0.00 0.01 0.00 85
20260506145323 56 187 0.0 2.6 0.00 0.01 0.00 85
20260506144824 55 187 0.9 2.6 0.00 0.01 0.00 85
20260506144323 55 187 0.9 2.6 0.00 0.01 0.00 86
20260506143823 55 188 0.9 2.6 0.00 0.01 0.00 86
20260506143323 55 229 0.9 3.5 0.00 0.01 0.00 86
20260506142821 55 211 0.9 3.5 0.00 0.01 0.00 86
20260506142321 55 259 0.0 1.7 0.00 0.01 0.00 86
20260506141821 55 225 0.9 4.3 0.00 0.01 0.00 86
20260506141322 55 214 0.9 4.3 0.00 0.01 0.00 86
20260506140820 55 171 0.0 0.9 0.00 0.01 0.00 86
20260506140321 55 164 0.0 1.7 0.00 0.01 0.00 86
20260506135820 55 164 0.0 1.7 0.00 0.01 0.00 86
20260506135321 55 194 0.0 0.9 0.00 0.01 0.00 86
20260506134820 54 321 0.0 0.0 0.00 0.01 0.00 86
20260506134320 54 321 0.0 0.0 0.00 0.01 0.00 86
20260506133821 54 321 0.0 0.0 0.00 0.01 0.00 86
20260506133318 54 321 0.0 0.0 0.00 0.01 0.00 85
20260506132818 54 321 0.0 0.0 0.00 0.01 0.00 85
20260506132327 54 321 0.0 0.0 0.00 0.01 0.00 85
20260506132319 54 321 0.0 0.0 0.00 0.01 0.00 85
20260506131818 54 321 0.0 0.0 0.00 0.01 0.00 85
20260506130827 54 321 0.0 0.0 0.00 0.01 0.00 85
20260506130819 54 321 0.0 0.0 0.00 0.01 0.00 85
20260506125827 54 321 0.0 0.0 0.00 0.01 0.00 85
20260506125819 54 321 0.0 0.0 0.00 0.01 0.00 85
20260506124825 54 321 0.0 0.0 0.00 0.01 0.00 85
20260506124817 54 321 0.0 0.0 0.00 0.01 0.00 85
20260506123816 54 321 0.0 0.0 0.00 0.01 0.00 85
20260506123318 54 321 0.0 0.0 0.00 0.01 0.00 85
20260506122816 54 321 0.0 0.0 0.00 0.01 0.00 85
20260506122325 54 321 0.0 0.0 0.00 0.01 0.00 85
20260506122316 54 321 0.0 0.0 0.00 0.01 0.00 85
20260506121316 53 321 0.0 0.0 0.00 0.01 0.00 85
20260506120815 53 321 0.0 0.0 0.00 0.01 0.00 85
20260506120315 53 321 0.0 0.0 0.00 0.01 0.00 85
20260506115816 53 321 0.0 0.0 0.00 0.01 0.00 85
20260506115312 53 321 0.0 0.0 0.00 0.01 0.00 85
20260506114811 53 321 0.0 0.0 0.00 0.01 0.00 85
20260506114313 53 321 0.0 0.0 0.00 0.01 0.00 84
20260506113811 53 321 0.0 0.0 0.00 0.01 0.00 84
20260506113311 53 321 0.0 0.0 0.00 0.01 0.00 85
20260506112811 53 321 0.0 0.0 0.00 0.01 0.00 84
20260506112310 53 321 0.0 0.0 0.00 0.01 0.00 84
20260506111816 53 321 0.0 0.0 0.00 0.01 0.00 84
20260506111809 53 321 0.0 0.0 0.00 0.01 0.00 84
20260506110806 53 321 0.0 0.0 0.00 0.01 0.00 84
20260506110307 53 321 0.0 0.0 0.00 0.01 0.00 84
20260506105805 53 321 0.0 0.0 0.00 0.01 0.00 84
20260506105305 53 321 0.0 0.0 0.00 0.02 0.00 84
20260506104804 53 321 0.0 0.0 0.00 0.02 0.00 84
20260506104302 53 321 0.0 0.0 0.00 0.02 0.00 83
20260506103803 53 275 0.0 0.0 0.00 0.02 0.00 83
20260506103302 53 275 0.0 0.0 0.00 0.02 0.00 83
20260506102812 53 275 0.0 0.0 0.00 0.02 0.00 83
20260506102804 53 275 0.0 0.0 0.00 0.02 0.00 83
20260506101800 53 275 0.0 0.0 0.00 0.02 0.00 83
20260506101258 52 275 0.0 0.0 0.00 0.02 0.00 83
20260506100759 52 275 0.0 0.0 0.00 0.03 0.00 82
20260506100259 52 275 0.0 0.9 0.00 0.03 0.00 82
20260506095756 52 275 0.0 0.9 0.00 0.03 0.00 82
20260506095257 52 275 0.0 1.7 0.00 0.04 0.00 82
20260506094803 52 240 0.0 0.0 0.00 0.04 0.00 82
20260506094756 52 275 0.0 1.7 0.00 0.04 0.00 82
20260506093753 52 240 0.0 1.7 0.00 0.04 0.00 82
20260506093301 52 258 0.0 0.0 0.00 0.04 0.00 81
20260506093253 52 240 0.0 1.7 0.00 0.04 0.00 82
20260506092913 52 258 0.0 0.0 0.00 0.04 0.00 81
20260506091750 52 260 0.0 0.0 0.00 0.04 0.00 81
20260506091251 53 260 0.0 0.9 0.00 0.04 0.00 80
20260506090752 53 260 0.0 0.9 0.00 0.04 0.00 80
20260506090250 53 267 0.0 0.0 0.00 0.04 0.00 80
20260506085800 53 267 0.0 0.0 0.00 0.04 0.00 80
20260506085752 53 267 0.0 0.0 0.00 0.04 0.00 80
20260506085250 53 267 0.0 0.0 0.00 0.04 0.00 80
20260506084909 53 267 0.0 0.0 0.00 0.04 0.00 80
20260506083755 53 267 0.0 0.0 0.00 0.04 0.00 80
20260506083747 53 267 0.0 0.0 0.00 0.04 0.00 80
20260506082743 53 267 0.0 0.0 0.00 0.04 0.00 80
20260506082245 54 267 0.0 0.0 0.00 0.04 0.00 80
20260506081743 54 267 0.0 0.0 0.00 0.04 0.00 80
20260506081245 54 267 0.0 0.0 0.00 0.04 0.00 80
20260506080745 54 267 0.0 0.0 0.00 0.04 0.00 80
20260506080245 54 267 0.0 0.9 0.00 0.04 0.00 80
20260506073245 55 252 0.0 0.9 0.00 0.04 0.00 80
20260506072751 55 249 0.0 1.7 0.00 0.04 0.00 80
20260506072744 55 252 0.0 1.7 0.00 0.04 0.00 80
20260506071744 55 249 0.0 1.7 0.00 0.04 0.00 80
20260506071244 55 249 0.0 0.0 0.00 0.04 0.00 79
20260506070744 55 249 0.9 6.1 0.00 0.04 0.00 79
20260506070245 56 249 0.9 6.1 0.00 0.04 0.00 79
20260506062240 56 248 1.7 6.1 0.00 0.04 0.04 78
20260506061740 56 240 0.9 6.1 0.00 0.04 0.04 78
20260506061247 57 188 0.0 0.0 0.00 0.04 0.04 78
20260506061239 57 188 0.0 0.0 0.00 0.04 0.04 78
20260506060902 57 188 0.9 3.5 0.00 0.04 0.04 78
20260506060240 57 188 0.0 0.9 0.00 0.04 0.04 78
20260506051237 57 318 1.7 9.6 0.00 0.04 0.04 77
20260506050735 57 243 2.6 9.6 0.00 0.04 0.04 78
20260506050244 58 165 0.9 5.2 0.00 0.04 0.04 77
20260506050237 57 242 1.7 7.0 0.00 0.04 0.04 77
20260506044736 58 218 1.7 6.1 0.00 0.04 0.04 77
20260506044235 58 188 2.6 7.0 0.00 0.04 0.04 77
20260506043736 58 171 2.6 7.0 0.00 0.04 0.04 77
20260506043236 58 175 1.7 6.1 0.00 0.04 0.04 77
20260506042743 58 223 1.7 7.0 0.00 0.04 0.04 76
20260506042735 58 273 1.7 7.0 0.00 0.04 0.04 76
20260506041733 58 282 1.7 5.2 0.00 0.04 0.04 76
20260506041234 58 210 1.7 5.2 0.00 0.04 0.04 76
20260506040740 58 261 2.6 8.7 0.00 0.04 0.04 75
20260506040733 58 270 1.7 7.8 0.00 0.04 0.04 76
20260506040233 58 208 2.6 7.8 0.00 0.04 0.04 76
20260506035233 58 272 2.6 8.7 0.00 0.04 0.04 75
20260506034733 58 235 1.7 8.7 0.00 0.04 0.04 75
20260506034233 58 173 1.7 8.7 0.00 0.04 0.04 75
20260506033734 58 228 2.6 7.8 0.00 0.04 0.04 75
20260506033231 59 246 1.7 7.0 0.00 0.04 0.04 75
20260506032731 59 188 1.7 7.8 0.00 0.04 0.04 74
20260506032231 59 271 0.9 7.8 0.00 0.04 0.04 74
20260506031731 59 181 0.9 7.0 0.00 0.04 0.04 74
20260506031229 59 241 2.6 9.6 0.00 0.04 0.04 74
20260506030729 59 134 2.6 10.4 0.00 0.04 0.04 74
20260506030229 59 183 2.6 10.4 0.00 0.04 0.04 74
20260506025736 59 196 3.5 9.6 0.00 0.04 0.04 73
20260506025729 59 252 2.6 7.8 0.00 0.04 0.04 74
20260506024730 59 243 3.5 9.6 0.00 0.04 0.04 73
20260506024230 59 171 3.5 12.2 0.00 0.04 0.04 73
20260506023729 59 265 3.5 12.2 0.00 0.04 0.04 73
20260506023229 60 259 3.5 10.4 0.00 0.04 0.04 73
20260506022730 60 223 4.3 10.4 0.00 0.04 0.04 72
20260506022228 60 229 4.3 9.6 0.00 0.04 0.04 72
20260506021729 60 208 2.6 9.6 0.00 0.04 0.04 72
20260506021230 60 289 2.6 7.8 0.00 0.04 0.04 71
20260506020729 60 200 3.5 8.7 0.00 0.04 0.04 71
20260506020236 60 183 3.5 9.6 0.00 0.04 0.04 71
20260506020227 60 177 4.3 8.7 0.00 0.04 0.04 71
20260506015228 60 238 3.5 9.6 0.00 0.04 0.04 71
20260506014728 61 194 4.3 13.9 0.00 0.04 0.04 71
20260506014238 61 169 7.0 14.8 0.00 0.04 0.04 71
20260506014228 61 194 6.1 15.6 0.00 0.04 0.04 71
20260506013727 61 175 7.0 15.6 0.00 0.04 0.04 70
20260506012728 61 181 6.1 14.8 0.00 0.04 0.04 71
20260506012228 61 169 6.1 14.8 0.00 0.04 0.04 71
20260506011729 61 177 5.2 14.8 0.00 0.04 0.04 70
20260506011227 61 177 5.2 13.9 0.00 0.04 0.04 70
20260506010727 61 198 6.1 10.4 0.00 0.04 0.04 70
20260506010228 61 189 5.2 10.4 0.00 0.04 0.04 71
20260506005727 61 181 5.2 10.4 0.00 0.04 0.04 71
20260506005227 61 181 5.2 11.3 0.00 0.04 0.04 71
20260506004727 61 222 5.2 11.3 0.00 0.04 0.04 71
20260506004228 61 180 5.2 10.4 0.00 0.04 0.04 70
20260506003725 61 173 5.2 10.4 0.00 0.04 0.04 70
20260506003226 61 170 5.2 10.4 0.00 0.04 0.04 70
20260506002725 61 200 6.1 14.8 0.00 0.04 0.04 70
20260506002233 61 256 6.1 13.9 0.00 0.04 0.04 70
20260506002225 61 189 5.2 14.8 0.00 0.04 0.04 71
20260506001225 61 171 6.1 12.2 0.00 0.04 0.04 70
20260506000725 62 194 4.3 11.3 0.00 0.04 0.04 70
20260506000226 62 169 2.6 8.7 0.00 0.04 0.04 70
20260505235725 62 208 4.3 12.2 0.00 0.04 0.04 70
20260505235225 62 211 5.2 12.2 0.00 0.04 0.04 70
20260505234724 62 180 4.3 11.3 0.00 0.04 0.04 69
20260505234224 62 264 5.2 13.0 0.00 0.04 0.04 69
20260505233730 62 196 7.0 13.0 0.00 0.04 0.04 71
20260505233721 62 203 4.3 13.0 0.00 0.04 0.04 69
20260505233222 62 204 3.5 7.8 0.00 0.04 0.04 70
20260505232719 62 192 5.2 11.3 0.00 0.04 0.04 70
20260505231719 62 188 6.1 13.0 0.00 0.04 0.04 70
20260505231219 62 194 5.2 14.8 0.00 0.04 0.04 70
20260505230718 62 179 6.1 14.8 0.00 0.04 0.04 70
20260505230219 62 182 5.2 10.4 0.00 0.04 0.04 69
20260505225720 62 190 5.2 10.4 0.00 0.04 0.04 70
20260505225219 62 216 6.1 13.0 0.00 0.04 0.04 70
20260505224719 62 195 5.2 13.0 0.00 0.04 0.04 69
20260505224218 62 192 5.2 11.3 0.00 0.04 0.04 70
20260505223719 62 215 6.1 11.3 0.00 0.04 0.04 69
20260505223218 62 176 6.1 12.2 0.00 0.04 0.04 70
20260505222719 62 229 7.8 13.0 0.00 0.04 0.04 70
20260505222219 62 158 7.8 13.0 0.00 0.04 0.04 70
20260505221720 62 176 7.0 13.0 0.00 0.04 0.04 71
20260505221219 62 221 5.2 13.0 0.00 0.04 0.04 71
20260505220720 62 227 4.3 12.2 0.00 0.04 0.04 72
20260505220228 61 188 5.2 11.3 0.00 0.04 0.04 72
20260505220219 62 225 5.2 12.2 0.00 0.04 0.04 73
20260505215219 61 274 5.2 12.2 0.00 0.04 0.04 73
20260505214727 61 290 5.2 10.4 0.00 0.04 0.04 74
20260505214719 61 244 5.2 12.2 0.00 0.04 0.04 73
20260505213718 61 208 5.2 11.3 0.00 0.04 0.04 74
20260505213218 61 251 7.0 13.9 0.00 0.04 0.04 74
20260505212720 61 165 6.1 13.9 0.00 0.04 0.04 74
20260505212219 60 182 4.3 11.3 0.00 0.04 0.04 74
20260505211718 60 238 5.2 9.6 0.00 0.04 0.04 74
20260505211219 60 171 6.1 12.2 0.00 0.04 0.04 74
20260505210720 60 186 7.0 12.2 0.00 0.04 0.04 75
20260505210218 60 190 7.0 11.3 0.00 0.04 0.04 75
20260505205727 60 186 5.2 12.2 0.00 0.04 0.04 76
20260505205719 60 186 7.0 12.2 0.00 0.04 0.04 75
20260505204718 60 167 5.2 9.6 0.00 0.04 0.04 76
20260505204227 59 163 5.2 11.3 0.00 0.04 0.04 75
20260505204219 59 199 5.2 11.3 0.00 0.04 0.04 75
20260505203842 60 187 4.3 11.3 0.00 0.04 0.04 75
20260505203344 60 179 5.2 12.2 0.00 0.04 0.04 75
20260505202219 60 168 4.3 12.2 0.00 0.04 0.04 75